Weather History for Clinton, MO

Change the Weather History Date:

Thursday, March 13, 2014

  Actual Average (KSZL) Record (KSZL)
Temperature  
Mean Temperature 50 °F -  
Max Temperature 69 °F 50 °F 81 °F (2012)
Min Temperature 32 °F 30 °F 24 °F (2013)
Degree Days  
Heating Degree Days 14    
Moisture  
Dew Point 28 °F    
Average Humidity 51    
Maximum Humidity 87    
Minimum Humidity 20    
Precipitation  
Precipitation 0.00 in - - ()
Sea Level Pressure  
Sea Level Pressure 30.04 in    
Wind  
Wind Speed 7 mph (SSW)    
Max Wind Speed 20 mph    
Max Gust Speed 26 mph    
Visibility 10 miles    
Events      
Averages and records for this station are not official NWS values.
T = Trace of Precipitation, MM = Missing Value Source: NWS Daily Summary

Daily Weather History Graph

Daily Weather History Graph

Search for Another Location

Airport:

Trip Planner

Search our weather history database for the weather conditions in past years. The results will help you decide how hot, cold, wet, or windy it might be!

Date:

Astronomy

Mar. 13, 2014 Rise Set
Actual Time 7:28 AM CDT 7:19 PM CDT
Civil Twilight 7:02 AM CDT 7:46 PM CDT
Nautical Twilight 6:31 AM CDT 8:17 PM CDT
Astronomical Twilight 6:01 AM CDT 8:48 PM CDT
Moon 4:48 PM CDT (3/13) 5:34 AM CDT (3/13)
Length of Visible Light 12h 43m
Length of Day
11h 51m
Waxing Gibbous, 91% of the Moon is Illuminated
Mar 13
Waxing Gibbous
Mar 16
Full
Mar 23
Last Quarter
Mar 30
New
Apr 7
First Quarter

Hourly Weather History & Observations

Time (CDT) Temp. Windchill Dew Point Humidity Pressure Visibility Wind Dir Wind Speed Gust Speed Precip Events Conditions
12:15 AM 37.4 °F 32.1 °F 28.4 °F 70% 30.14 in 10.0 mi South 6.9 mph - N/A   Clear
12:35 AM 39.2 °F 35.0 °F 28.4 °F 65% 30.14 in 10.0 mi South 5.8 mph - N/A   Clear
12:55 AM 37.4 °F 33.8 °F 28.4 °F 70% 30.14 in 10.0 mi South 4.6 mph - N/A   Clear
1:15 AM 35.6 °F 30.7 °F 28.4 °F 75% 30.13 in 10.0 mi SSW 5.8 mph - N/A   Clear
1:35 AM 35.6 °F 31.7 °F 28.4 °F 75% 30.13 in 10.0 mi SSW 4.6 mph - N/A   Clear
1:55 AM 35.6 °F 32.8 °F 28.4 °F 75% 30.12 in 10.0 mi SSW 3.5 mph - N/A   Clear
2:15 AM 33.8 °F 30.8 °F 28.4 °F 81% 30.12 in 10.0 mi SSW 3.5 mph - N/A   Clear
2:35 AM 33.8 °F - 28.4 °F 81% 30.12 in 10.0 mi Calm Calm - N/A   Clear
2:55 AM 33.8 °F 29.6 °F 30.2 °F 87% 30.12 in 10.0 mi SSW 4.6 mph - N/A   Clear
3:15 AM 33.8 °F - 28.4 °F 81% 30.12 in 10.0 mi Calm Calm - N/A   Clear
3:35 AM 32.0 °F - 28.4 °F 87% 30.11 in 10.0 mi Calm Calm - N/A   Clear
3:55 AM 32.0 °F - 28.4 °F 87% 30.11 in 10.0 mi Calm Calm - N/A   Clear
4:15 AM 32.0 °F - 28.4 °F 87% 30.10 in 10.0 mi Calm Calm - N/A   Clear
4:35 AM 32.0 °F 28.7 °F 28.4 °F 87% 30.10 in 10.0 mi South 3.5 mph - N/A   Clear
4:55 AM 33.8 °F - 28.4 °F 81% 30.10 in 10.0 mi Calm Calm - N/A   Clear
5:15 AM 33.8 °F - 28.4 °F 81% 30.10 in 10.0 mi Calm Calm - N/A   Clear
5:35 AM 32.0 °F 26.4 °F 28.4 °F 87% 30.10 in 10.0 mi SSW 5.8 mph - N/A   Clear
5:55 AM 33.8 °F 28.6 °F 28.4 °F 81% 30.10 in 10.0 mi South 5.8 mph - N/A   Clear
6:15 AM 33.8 °F 28.6 °F 28.4 °F 81% 30.10 in 10.0 mi SSW 5.8 mph - N/A   Clear
6:35 AM 32.0 °F 27.5 °F 28.4 °F 87% 30.10 in 10.0 mi SSW 4.6 mph - N/A   Clear
6:55 AM 32.0 °F 26.4 °F 28.4 °F 87% 30.10 in 10.0 mi SSW 5.8 mph - N/A   Clear
7:15 AM 33.8 °F 27.7 °F 28.4 °F 81% 30.10 in 10.0 mi SSW 6.9 mph - N/A   Clear
7:35 AM 35.6 °F 29.9 °F 28.4 °F 75% 30.10 in 10.0 mi SSW 6.9 mph - N/A   Clear
7:55 AM 35.6 °F 31.7 °F 28.4 °F 75% 30.10 in 10.0 mi SSW 4.6 mph - N/A   Clear
8:15 AM 35.6 °F 30.7 °F 30.2 °F 81% 30.10 in 10.0 mi SSW 5.8 mph - N/A   Clear
8:35 AM 37.4 °F 32.1 °F 30.2 °F 75% 30.11 in 10.0 mi SSW 6.9 mph - N/A   Clear
8:55 AM 39.2 °F 32.5 °F 32.0 °F 75% 30.11 in 10.0 mi SW 10.4 mph - N/A   Clear
9:15 AM 42.8 °F 38.0 °F 32.0 °F 66% 30.12 in 10.0 mi SW 8.1 mph - N/A   Clear
9:35 AM 42.8 °F 37.0 °F 30.2 °F 61% 30.12 in 10.0 mi SW 10.4 mph - N/A   Clear
9:55 AM 44.6 °F 39.7 °F 30.2 °F 57% 30.12 in 10.0 mi WSW 9.2 mph - N/A   Clear
10:15 AM 46.4 °F 41.9 °F 32.0 °F 57% 30.12 in 10.0 mi WSW 9.2 mph - N/A   Clear
10:35 AM 48.2 °F - 32.0 °F 54% 30.11 in 10.0 mi SW 8.1 mph - N/A   Clear
10:55 AM 50.0 °F - 32.0 °F 50% 30.11 in 10.0 mi SW 10.4 mph - N/A   Clear
11:15 AM 51.8 °F - 32.0 °F 47% 30.11 in 10.0 mi South 6.9 mph - N/A   Clear
11:35 AM 53.6 °F - 32.0 °F 44% 30.10 in 10.0 mi South 8.1 mph - N/A   Clear
11:55 AM 55.4 °F - 32.0 °F 41% 30.10 in 10.0 mi SSW 6.9 mph - N/A   Clear
12:15 PM 57.2 °F - 32.0 °F 38% 30.09 in 10.0 mi SW 5.8 mph - N/A   Clear
12:35 PM 59.0 °F - 32.0 °F 36% 30.08 in 10.0 mi SW 6.9 mph - N/A   Clear
12:55 PM 60.8 °F - 30.2 °F 31% 30.07 in 10.0 mi WSW 8.1 mph - N/A   Clear
1:15 PM 62.6 °F - 30.2 °F 30% 30.07 in 10.0 mi SSW 10.4 mph - N/A   Clear
1:35 PM 64.4 °F - 28.4 °F 26% 30.05 in 10.0 mi SW 11.5 mph - N/A   Clear
1:55 PM 64.4 °F - 28.4 °F 26% 30.04 in 10.0 mi SW 12.7 mph 19.6 mph N/A   Clear
2:15 PM 66.2 °F - 28.4 °F 24% 30.03 in 10.0 mi WSW 16.1 mph 19.6 mph N/A   Clear
2:35 PM 66.2 °F - 28.4 °F 24% 30.02 in 10.0 mi SW 17.3 mph 20.7 mph N/A   Clear
2:55 PM 66.2 °F - 28.4 °F 24% 30.01 in 10.0 mi SW 18.4 mph 24.2 mph N/A   Clear
3:15 PM 68.0 °F - 28.4 °F 23% 29.99 in 10.0 mi SW 19.6 mph 24.2 mph N/A   Clear
3:35 PM 68.0 °F - 28.4 °F 23% 29.99 in 10.0 mi SW 16.1 mph 20.7 mph N/A   Clear
3:55 PM 68.0 °F - 26.6 °F 21% 29.98 in 10.0 mi WSW 15.0 mph 20.7 mph N/A   Clear
4:15 PM 69.8 °F - 26.6 °F 20% 29.98 in 10.0 mi WSW 17.3 mph 26.5 mph N/A   Clear
4:35 PM 68.0 °F - 26.6 °F 21% 29.97 in 10.0 mi SSW 15.0 mph 20.7 mph N/A   Clear
4:55 PM 68.0 °F - 26.6 °F 21% 29.96 in 10.0 mi WSW 17.3 mph 20.7 mph N/A   Clear
5:15 PM 66.2 °F - 26.6 °F 23% 29.95 in 10.0 mi SW 11.5 mph 21.9 mph N/A   Clear
5:35 PM 66.2 °F - 26.6 °F 23% 29.95 in 10.0 mi SW 15.0 mph 24.2 mph N/A   Clear
5:55 PM 66.2 °F - 26.6 °F 23% 29.94 in 10.0 mi SW 12.7 mph - N/A   Clear
6:15 PM 66.2 °F - 26.6 °F 23% 29.94 in 10.0 mi SSW 9.2 mph 19.6 mph N/A   Clear
6:35 PM 64.4 °F - 26.6 °F 24% 29.93 in 10.0 mi SSW 11.5 mph - N/A   Clear
6:55 PM 64.4 °F - 26.6 °F 24% 29.93 in 10.0 mi SSW 8.1 mph - N/A   Clear
7:15 PM 62.6 °F - 26.6 °F 26% 29.93 in 10.0 mi SSW 9.2 mph - N/A   Clear
7:35 PM 60.8 °F - 26.6 °F 27% 29.93 in 10.0 mi SSW 8.1 mph - N/A   Clear
7:55 PM 60.8 °F - 24.8 °F 25% 29.92 in 10.0 mi SSW 8.1 mph - N/A   Clear
8:15 PM 57.2 °F - 26.6 °F 31% 29.93 in 10.0 mi South 8.1 mph - N/A   Clear
8:35 PM 57.2 °F - 26.6 °F 31% 29.92 in 10.0 mi South 9.2 mph - N/A   Clear
8:55 PM 55.4 °F - 26.6 °F 33% 29.92 in 10.0 mi South 9.2 mph - N/A   Clear
9:15 PM 55.4 °F - 26.6 °F 33% 29.93 in 10.0 mi South 8.1 mph - N/A   Clear
9:35 PM 55.4 °F - 28.4 °F 36% 29.92 in 10.0 mi South 8.1 mph - N/A   Clear
9:55 PM 53.6 °F - 26.6 °F 35% 29.92 in 10.0 mi South 8.1 mph - N/A   Clear
10:15 PM 53.6 °F - 26.6 °F 35% 29.93 in 10.0 mi South 9.2 mph - N/A   Clear
10:35 PM 53.6 °F - 26.6 °F 35% 29.92 in 10.0 mi South 9.2 mph - N/A   Clear
10:55 PM 53.6 °F - 26.6 °F 35% 29.92 in 10.0 mi South 9.2 mph - N/A   Clear
11:15 PM 53.6 °F - 26.6 °F 35% 29.91 in 10.0 mi South 9.2 mph - N/A   Clear
11:35 PM 53.6 °F - 26.6 °F 35% 29.91 in 10.0 mi South 12.7 mph - N/A   Clear
11:55 PM 53.6 °F - 26.6 °F 35% 29.90 in 10.0 mi South 12.7 mph - N/A   Clear